[[{"header":{"parameterUnit":"m.s-1","parameterCategory":1,"la1":30.2991,"la2":30.254,"lo1":-89.0895,"lo2":-89.0444,"dy":0.0017,"dx":0.0017,"nx":28,"ny":28,"refTime":"2025-08-08T09:00:00:Z","depth":0,"parameterNumber":2,"parameterNumberName":"U-component_of_WINDS"},"data":[0,0,0,0,0,0,0,0,0,0,0,0,0,0,0,0,0,0,0,0,0,0,0,0,0,0,0,0,0,0,0,0,0,0,0,0,0,0,0,0,0,0,0,0,0,0,0,0,0,0,0,0,0,0,0,0,0,0,-5.7227,-5.7227,0,-5.7268,-5.7268,-5.7269,-5.7115,-5.7111,-5.7106,-5.7102,-5.7141,-5.7146,-5.7152,0,0,0,0,0,0,0,0,0,0,0,0,0,-5.7014,-5.7019,-5.7227,-5.7228,-5.7228,-5.7268,-5.7268,-5.7269,-5.7116,-5.7111,-5.7105,-5.71,-5.714,-5.7146,-5.7152,0,0,0,0,0,0,0,0,0,0,0,0,0,-5.7086,-5.702,-5.7227,-5.7157,-5.7151,-5.7268,-5.7268,-5.7269,-5.7117,-5.711,-5.7104,-5.7097,-5.7137,-5.7145,-5.7153,-5.7339,0,0,-5.7177,-5.7181,0,0,0,0,0,0,0,0,-5.7082,-5.7094,-5.7167,-5.7162,-5.7155,-5.7179,-5.7207,-5.7292,-5.7119,-5.713,-5.7102,-5.7094,-5.7159,-5.7165,-5.7188,-5.734,-5.7342,-5.7178,-5.7183,-5.7186,-5.7188,0,0,0,0,0,0,0,-5.7077,-5.7091,-5.7243,-5.7168,-5.7161,-5.7122,-5.7125,-5.7223,-5.7182,-5.7128,-5.7117,-5.7125,-5.7155,-5.718,-5.7187,-5.7343,-5.7178,-5.7185,-5.719,-5.7193,-5.7647,-5.7654,0,0,0,0,0,0,-5.7082,-5.7088,-5.7242,-5.7244,-5.7101,-5.7132,-5.7134,-5.7179,-5.7181,-5.7175,-5.713,-5.7117,-5.717,-5.7178,-5.7188,-5.7403,-5.7186,-5.7193,-5.7198,-5.7639,-5.7648,-5.7656,0,0,0,0,0,0,-5.7078,-5.7097,-5.724,-5.7163,-5.7178,-5.7142,-5.7193,-5.7183,-5.7208,-5.7182,-5.7174,-5.7164,-5.7165,-5.7177,-5.7302,-5.7402,-5.7197,-5.7204,-5.7631,-5.7642,-5.7652,-5.7835,0,0,0,0,0,0,-5.7072,-5.7096,-5.7167,-5.7166,-5.7183,-5.7354,-5.72,-5.7189,-5.7222,-5.7206,-5.7211,-5.7206,-5.7161,-5.7291,-5.731,-5.7409,-5.721,-5.7622,-5.7636,-5.7649,-5.782,-5.7851,-5.7878,0,0,0,0,0,-5.7065,-5.7217,-5.7172,-5.7191,-5.7271,-5.7361,-5.737,-5.7316,-5.7231,-5.7301,-5.7285,-5.7206,-5.7389,-5.7305,-5.7325,-5.7428,-5.7615,-5.7632,-5.7648,-5.7807,-5.7845,-5.7877,0,0,0,0,0,0,-5.723,-5.7216,-5.7165,-5.7321,-5.7344,-5.7334,-5.7421,-5.7358,-5.7404,-5.7386,-5.7316,-5.7319,-5.7455,-5.7454,-5.7361,-5.7607,-5.7487,-5.7508,-5.7602,-5.7637,-5.7666,-5.7661,-5.7217,0,0,0,0,0,-5.7286,-5.736,-5.7343,-5.7483,-5.7497,-5.7458,-5.7495,-5.7451,-5.747,-5.7479,-5.7471,-5.7492,-5.7554,-5.7596,-5.7652,-5.7821,-5.7818,-5.7902,-5.7931,-5.7954,-5.7972,-5.8058,-5.8094,-5.771,-5.771,-5.771,0,0,-5.7399,-5.74,-5.7452,-5.7516,-5.7528,-5.7605,-5.7466,-5.7555,-5.7611,-5.7492,-5.7608,-5.7604,-5.7623,-5.777,-5.7834,-5.7773,-5.8078,-5.7975,-5.7994,-5.7999,-5.8079,-5.8116,-5.8148,-5.7721,-5.7719,-5.7717,0,0,-5.7645,-5.7655,-5.7771,-5.7786,-5.7806,-5.7779,-5.7807,-5.7808,-5.78,-5.7917,-5.7828,-5.7894,-5.8003,-5.8019,-5.8042,-5.8295,-5.8223,-5.8315,-5.8464,-5.8549,-5.858,-5.8606,-5.8693,-5.8725,-5.8334,-5.8334,-5.8335,0,-5.7783,-5.7897,-5.7838,-5.7932,-5.7962,-5.7859,-5.7975,-5.7992,-5.8029,-5.8052,-5.7984,-5.8117,-5.8123,-5.8271,-5.8333,-5.8356,-5.8383,-5.8312,-5.858,-5.8606,-5.863,-5.8712,-5.8745,-5.8345,-5.8344,-5.8343,-5.8342,0,-5.8064,-5.8145,-5.8236,-5.8275,-5.8315,-5.842,-5.8376,-5.8424,-5.8377,-5.8357,-5.8476,-5.848,-5.8533,-5.8566,-5.8521,-5.8707,-5.8668,-5.8593,-5.847,-5.8678,-5.8754,-5.8785,-5.8361,-5.8357,-5.8354,-5.8351,0,0,-5.8413,-5.8418,-5.8452,-5.8467,-5.8482,-5.8543,-5.8643,-5.8695,-5.8736,-5.8767,-5.8846,-5.8941,-5.887,-5.8896,-5.8852,-5.8928,-5.9124,-5.8841,-5.884,-5.889,-5.9325,-5.938,-5.9417,-5.9078,-5.9083,-5.9088,-5.9322,0,-5.8651,-5.8821,-5.8772,-5.8942,-5.9014,-5.8918,-5.9004,-5.9022,-5.9007,-5.9064,-5.9047,-5.9114,-5.9017,-5.9031,-5.9102,-5.9085,-5.9209,-5.9068,-5.9148,-5.9152,-5.9143,-5.9457,-5.9516,-5.9737,-5.9352,-5.9357,-5.9361,0,-5.8952,-5.8993,-5.9171,-5.9172,-5.92,-5.9279,-5.9322,-5.938,-5.9398,-5.9381,-5.9411,-5.9352,-5.9448,-5.9328,-5.9458,-5.9363,-5.9393,-5.9391,-5.9398,-5.94,-5.9266,-5.9465,-5.9806,-5.9838,-5.9407,-5.9404,-5.94,0,-5.9184,-5.9284,-5.9403,-5.9419,-5.9425,-5.9482,-5.9487,-5.9498,-5.9532,-5.9571,-5.9592,-5.9642,-5.9668,-5.9707,-5.9662,-5.958,-5.9798,-5.9675,-5.9784,-5.9786,-5.9831,-5.9828,-6.0179,-5.9858,-5.9858,-5.9857,-5.9856,0,-5.9453,-5.9564,-5.9507,-5.9579,-5.9701,-5.9643,-5.9765,-5.9758,-5.9769,-5.9838,-5.9759,-5.9825,-5.9763,-5.9823,-5.9789,-5.99,-5.9914,-5.9901,-5.989,-5.9906,-5.9907,-5.9922,-5.9904,-5.9866,-5.9864,-5.9862,-5.9861,0,-5.9731,-5.9697,-5.9819,-5.9815,-5.9816,-5.9906,-5.9901,-5.9967,-5.9947,-6.0034,-6.0051,-6.0019,-6.0085,-6.0045,-6.0113,-6.009,-6.0234,-6.0204,-6.0228,-6.0218,-6.0328,-6.0317,-6.0697,-6.0742,-6.0396,-6.04,-6.0403,0,-5.9903,-5.9986,-5.9991,-6.0032,-6.0042,-6.0108,-6.0143,-6.009,-6.0129,-6.0155,-6.0218,-6.0278,-6.0322,-6.0433,-6.0414,-6.0465,-6.0433,-6.0563,-6.044,-6.0453,-6.043,-6.0424,-6.0431,-6.0586,-6.059,-6.0594,-6.0596,0,-6.0211,-6.019,-6.0244,-6.0292,-6.0336,-6.0371,-6.04,-6.0437,-6.0384,-6.0432,-6.0499,-6.0534,-6.0603,-6.0662,-6.0705,-6.0708,-6.0643,-6.0636,-6.0663,-6.0678,-6.0687,-6.068,-6.0291,-6.0626,-6.0623,-6.0621,-6.062,-6.0618,-6.0438,-6.0507,-6.0521,-6.0583,-6.0599,-6.0627,-6.0689,-6.0676,-6.0731,-6.0783,-6.0748,-6.0827,-6.0841,-6.0893,-6.0905,-6.0964,-6.0911,-6.0952,-6.0961,-6.0971,-6.0984,-6.0682,-6.0972,-6.0972,-6.0971,-6.097,-6.0969,0,-6.0739,-6.0743,-6.0801,-6.0843,-6.0892,-6.0828,-6.0857,-6.0901,-6.0971,-6.0991,-6.1036,-6.1113,-6.117,-6.1157,-6.1208,-6.1258,-6.1229,-6.1273,-6.1266,-6.1268,-6.1031,-6.1,-6.1295,-6.1295,-6.1295,-6.1295,-6.1295,-6.1295,-6.09,-6.1012,-6.0994,-6.1112,-6.1115,-6.1192,-6.1213,-6.1238,-6.1253,-6.1342,-6.1389,-6.1381,-6.1386,-6.1437,-6.1486,-6.1481,-6.1502,-6.1556,-6.1539,-6.1317,-6.1285,-6.1254,-6.1225,-6.1562,-6.1562,-6.177,-6.1772,-6.1774]},{"header":{"parameterUnit":"m.s-1","parameterCategory":1,"la1":30.2991,"la2":30.254,"lo1":-89.0895,"lo2":-89.0444,"dy":0.0017,"dx":0.0017,"nx":28,"ny":28,"refTime":"2025-08-08T09:00:00:Z","depth":0,"parameterNumber":3,"parameterNumberName":"V-component_of_WINDS"},"data":[0,0,0,0,0,0,0,0,0,0,0,0,0,0,0,0,0,0,0,0,0,0,0,0,0,0,0,0,0,0,0,0,0,0,0,0,0,0,0,0,0,0,0,0,0,0,0,0,0,0,0,0,0,0,0,0,0,0,0.2533,0.2534,0,0.2657,0.2659,0.266,0.2703,0.2702,0.2702,0.2701,0.2831,0.2834,0.2838,0,0,0,0,0,0,0,0,0,0,0,0,0,0.2336,0.234,0.2533,0.2534,0.2536,0.2657,0.2659,0.266,0.2703,0.2702,0.2702,0.2701,0.2829,0.2834,0.2839,0,0,0,0,0,0,0,0,0,0,0,0,0,0.2437,0.2341,0.2532,0.2572,0.2576,0.2657,0.2659,0.2661,0.2703,0.2702,0.2702,0.2701,0.2828,0.2834,0.2839,0.289,0,0,0.2857,0.286,0,0,0,0,0,0,0,0,0.2431,0.2444,0.2564,0.2569,0.2575,0.2664,0.2637,0.2738,0.2703,0.2655,0.2701,0.2701,0.2776,0.2786,0.2811,0.2896,0.2902,0.2858,0.2861,0.2864,0.2865,0,0,0,0,0,0,0,0.2424,0.2439,0.2582,0.2566,0.2572,0.2584,0.2598,0.2656,0.2718,0.2659,0.2663,0.2677,0.2778,0.2805,0.2814,0.2904,0.2858,0.2863,0.2866,0.2869,0.3041,0.3042,0,0,0,0,0,0,0.241,0.2433,0.2578,0.2586,0.25,0.2588,0.2604,0.2636,0.2718,0.2729,0.2677,0.2678,0.2796,0.2807,0.2819,0.2886,0.2864,0.2869,0.2873,0.304,0.3041,0.3042,0,0,0,0,0,0,0.2406,0.2423,0.2573,0.2511,0.2531,0.2593,0.2629,0.2639,0.2665,0.2731,0.2743,0.2693,0.2795,0.2811,0.2873,0.2891,0.2872,0.2877,0.3038,0.304,0.3042,0.3019,0,0,0,0,0,0,0.24,0.2421,0.244,0.2511,0.2534,0.2623,0.263,0.2642,0.2675,0.2678,0.2749,0.276,0.2796,0.2864,0.2879,0.2899,0.2882,0.3037,0.3039,0.3041,0.3019,0.302,0.3021,0,0,0,0,0,0.2393,0.2428,0.244,0.2458,0.2558,0.2624,0.2638,0.2678,0.2676,0.2697,0.274,0.2758,0.2887,0.287,0.2887,0.2909,0.3036,0.3039,0.3041,0.3018,0.302,0.3021,0,0,0,0,0,0,0.2358,0.2438,0.2453,0.2511,0.2561,0.2631,0.2658,0.2678,0.2729,0.2729,0.2778,0.2794,0.2853,0.2887,0.2867,0.2965,0.2963,0.2969,0.294,0.2942,0.2943,0.2933,0.2887,0,0,0,0,0,0.2357,0.2403,0.2471,0.2517,0.2541,0.2595,0.2625,0.2652,0.2706,0.2727,0.2774,0.2826,0.2878,0.2912,0.2964,0.3024,0.3042,0.3048,0.3049,0.305,0.3055,0.3092,0.3096,0.305,0.305,0.305,0,0,0.2356,0.2405,0.2431,0.2511,0.2552,0.26,0.2612,0.2662,0.2699,0.2734,0.2796,0.2833,0.2894,0.2956,0.2986,0.2987,0.3072,0.3053,0.3053,0.3057,0.3095,0.3099,0.3103,0.3052,0.3051,0.3051,0,0,0.2378,0.2419,0.2463,0.2505,0.2567,0.2604,0.2614,0.2683,0.2709,0.2771,0.28,0.2845,0.2934,0.2977,0.3011,0.3053,0.3073,0.3069,0.3075,0.3111,0.3115,0.3118,0.3135,0.314,0.3073,0.3073,0.3073,0,0.2369,0.2441,0.2483,0.2532,0.2568,0.2603,0.2649,0.2687,0.2764,0.2788,0.2788,0.2902,0.2946,0.302,0.303,0.3056,0.3071,0.3061,0.311,0.3114,0.3118,0.3135,0.3141,0.3072,0.3072,0.3072,0.3072,0,0.2428,0.2478,0.2506,0.2579,0.2618,0.2665,0.2716,0.275,0.2775,0.2812,0.2877,0.2931,0.2995,0.3015,0.3039,0.3094,0.3092,0.3101,0.31,0.3121,0.3138,0.3145,0.3071,0.3071,0.3072,0.3072,0,0,0.243,0.2528,0.2537,0.2572,0.2645,0.2686,0.2736,0.2799,0.2829,0.2881,0.2926,0.3001,0.301,0.3048,0.3078,0.3109,0.3142,0.3114,0.3117,0.3119,0.3209,0.3203,0.3209,0.3156,0.3157,0.3158,0.3204,0,0.2463,0.2553,0.2593,0.2666,0.2714,0.275,0.2794,0.2844,0.2881,0.2929,0.297,0.3023,0.303,0.3054,0.3086,0.3131,0.3161,0.3128,0.3199,0.3201,0.3184,0.3218,0.3211,0.3252,0.3211,0.3212,0.3213,0,0.2513,0.2566,0.2643,0.2713,0.2735,0.2773,0.2836,0.2881,0.294,0.2965,0.3009,0.3038,0.3094,0.3089,0.3168,0.3145,0.3177,0.3204,0.3207,0.3215,0.3209,0.3229,0.3266,0.3272,0.3223,0.3222,0.3222,0,0.2509,0.2599,0.2658,0.2687,0.2769,0.2796,0.2832,0.2891,0.2927,0.2982,0.3007,0.3068,0.3102,0.3149,0.3195,0.3187,0.3271,0.3269,0.3294,0.3293,0.3311,0.3309,0.3354,0.3329,0.3329,0.3329,0.3329,0,0.2542,0.2588,0.2658,0.2694,0.2748,0.2795,0.2848,0.2887,0.2939,0.2985,0.3019,0.3062,0.3119,0.3169,0.3205,0.3267,0.3281,0.3304,0.3313,0.3302,0.3299,0.3324,0.3323,0.3331,0.333,0.333,0.333,0,0.2546,0.2595,0.2661,0.2735,0.2755,0.2791,0.2855,0.2893,0.2932,0.299,0.3006,0.3068,0.3129,0.3179,0.3259,0.3284,0.3349,0.3359,0.3329,0.3334,0.3357,0.3354,0.342,0.3432,0.3397,0.3398,0.3398,0,0.2564,0.2601,0.2679,0.2712,0.2748,0.28,0.2838,0.2887,0.2925,0.2997,0.3027,0.3091,0.3144,0.3241,0.3294,0.3356,0.3369,0.3388,0.3378,0.3367,0.3371,0.3369,0.3374,0.3389,0.3389,0.3389,0.3389,0,0.2592,0.2615,0.2668,0.273,0.2774,0.2825,0.2877,0.2903,0.2962,0.3003,0.3067,0.3108,0.3191,0.3255,0.3323,0.3362,0.3386,0.3392,0.3401,0.339,0.3372,0.3384,0.3332,0.339,0.339,0.339,0.339,0.339,0.2606,0.2641,0.2702,0.276,0.2805,0.2854,0.2893,0.2938,0.2992,0.3063,0.3089,0.3154,0.3216,0.331,0.335,0.3403,0.3405,0.3418,0.3422,0.3425,0.3424,0.3363,0.3415,0.3415,0.3415,0.3416,0.3416,0,0.2637,0.2679,0.2732,0.2804,0.2851,0.2869,0.2929,0.2967,0.3024,0.3079,0.3132,0.3206,0.3269,0.3328,0.3394,0.3425,0.3438,0.3441,0.344,0.3449,0.3417,0.3403,0.343,0.343,0.343,0.343,0.343,0.343,0.2659,0.272,0.2751,0.2836,0.2878,0.2942,0.2975,0.3021,0.3065,0.3146,0.3199,0.3237,0.3294,0.3365,0.3425,0.3441,0.3464,0.3464,0.3483,0.3453,0.3451,0.3449,0.3436,0.3469,0.3469,0.3511,0.3511,0.3511]}]]